When you browse on this site, cookies collect data to enhance your experience and personalize the content and advertising you see.
Visit our Privacy Policy to learn more. By continuing to use the site, you agree to this use of cookies and data.
  • In Spain
  • List of Countries
  • For 7 days
  • Water Temperature
  • Satellite Maps
  • Weather Map
  • Weather Widgets
  • user-avatar
    Login

    Hourly Weather Barybino

    Today, 18 June, Tuesday

    Time Temperature Precipitation Wind Pressure Humidity
    00:00 +18°C° 0 mm 1 mps 743 mmHg 81%
    01:00 +18°C° 0 mm 1 mps 743 mmHg 83%
    02:00 +16°C° 0 mm 1 mps 743 mmHg 86%
    03:00 +16°C° 0 mm 1 mps 743 mmHg 86%
    04:00 +18°C° 0.1 mm 1 mps 743 mmHg 87%
    05:00 +17°C° 0.1 mm 2 mps 743 mmHg 88%
    06:00 +18°C° 0.1 mm 2 mps 743 mmHg 89%
    07:00 +19°C° 0.5 mm 2 mps 743 mmHg 85%
    08:00 +20°C° 0.5 mm 2 mps 743 mmHg 81%
    09:00 +23°C° 0.5 mm 2 mps 743 mmHg 77%
    10:00 +24°C° 0.6 mm 2 mps 743 mmHg 73%
    11:00 +25°C° 0.6 mm 2 mps 743 mmHg 68%
    12:00 +26°C° 0.6 mm 2 mps 742 mmHg 63%
    13:00 +26°C° 0.3 mm 3 mps 742 mmHg 64%
    14:00 +26°C° 0.3 mm 3 mps 742 mmHg 65%
    15:00 +26°C° 0.3 mm 3 mps 742 mmHg 66%
    16:00 +26°C° 0.3 mm 3 mps 742 mmHg 68%
    17:00 +26°C° 0.3 mm 3 mps 742 mmHg 70%
    18:00 +25°C° 0.3 mm 2 mps 742 mmHg 72%
    19:00 +24°C° 0.1 mm 2 mps 742 mmHg 75%
    20:00 +21°C° 0.1 mm 2 mps 742 mmHg 78%
    21:00 +19°C° 0.1 mm 2 mps 742 mmHg 80%
    22:00 +19°C° 0 mm 3 mps 743 mmHg 82%
    23:00 +18°C° 0 mm 3 mps 743 mmHg 85%

    Tomorrow, 19 June, Wednesday

    Time Temperature Precipitation Wind Pressure Humidity
    00:00 +17°C° 0 mm 3 mps 743 mmHg 87%
    01:00 +16°C° 0 mm 3 mps 743 mmHg 88%
    02:00 +16°C° 0 mm 3 mps 744 mmHg 89%
    03:00 +14°C° 0 mm 3 mps 744 mmHg 90%
    04:00 +14°C° 0 mm 3 mps 744 mmHg 88%
    05:00 +16°C° 0 mm 3 mps 744 mmHg 85%
    06:00 +16°C° 0 mm 3 mps 744 mmHg 83%
    07:00 +18°C° 0 mm 3 mps 745 mmHg 79%
    08:00 +19°C° 0 mm 3 mps 745 mmHg 74%
    09:00 +21°C° 0 mm 3 mps 745 mmHg 70%
    10:00 +22°C° 0 mm 3 mps 745 mmHg 65%
    11:00 +24°C° 0 mm 3 mps 745 mmHg 60%
    12:00 +25°C° 0 mm 3 mps 745 mmHg 55%
    13:00 +26°C° 0 mm 3 mps 745 mmHg 54%
    14:00 +26°C° 0 mm 3 mps 745 mmHg 53%
    15:00 +26°C° 0 mm 3 mps 745 mmHg 52%
    16:00 +26°C° 0 mm 2 mps 745 mmHg 55%
    17:00 +26°C° 0 mm 2 mps 745 mmHg 58%
    18:00 +26°C° 0 mm 1 mps 745 mmHg 60%
    19:00 +24°C° 0 mm 1 mps 745 mmHg 65%
    20:00 +22°C° 0 mm 1 mps 745 mmHg 70%
    21:00 +18°C° 0 mm 0 mps 745 mmHg 74%
    22:00 +20°C° 0 mm 1 mps 745 mmHg 75%
    23:00 +19°C° 0 mm 1 mps 745 mmHg 77%

    Day after tomorrow, 20 June, Thursday

    Time Temperature Precipitation Wind Pressure Humidity
    00:00 +19°C° 0 mm 1 mps 746 mmHg 78%
    01:00 +18°C° 0 mm 1 mps 746 mmHg 79%
    02:00 +18°C° 0 mm 1 mps 746 mmHg 81%
    03:00 +16°C° 0 mm 1 mps 746 mmHg 82%
    04:00 +18°C° 0 mm 1 mps 746 mmHg 82%
    05:00 +19°C° 0 mm 1 mps 746 mmHg 81%
    06:00 +19°C° 0 mm 1 mps 746 mmHg 81%
    07:00 +21°C° 0 mm 1 mps 747 mmHg 76%
    08:00 +22°C° 0 mm 1 mps 747 mmHg 70%
    09:00 +24°C° 0 mm 1 mps 747 mmHg 65%
    10:00 +25°C° 0 mm 1 mps 747 mmHg 60%
    11:00 +26°C° 0 mm 1 mps 747 mmHg 55%
    12:00 +26°C° 0 mm 0 mps 747 mmHg 50%
    13:00 +26°C° 0 mm 0 mps 746 mmHg 49%
    14:00 +28°C° 0 mm 1 mps 746 mmHg 48%
    15:00 +28°C° 0 mm 1 mps 746 mmHg 46%
    16:00 +28°C° 0 mm 1 mps 746 mmHg 50%
    17:00 +28°C° 0 mm 1 mps 746 mmHg 54%
    18:00 +27°C° 0 mm 1 mps 746 mmHg 58%
    19:00 +25°C° 0 mm 1 mps 746 mmHg 60%
    20:00 +23°C° 0 mm 1 mps 746 mmHg 63%
    21:00 +21°C° 0 mm 1 mps 746 mmHg 65%
    22:00 +21°C° 0 mm 1 mps 746 mmHg 68%
    23:00 +20°C° 0 mm 1 mps 746 mmHg 70%

    21 June, Friday

    Time Temperature Precipitation Wind Pressure Humidity
    00:00 +19°C° 0 mm 1 mps 746 mmHg 73%
    01:00 +19°C° 0 mm 1 mps 746 mmHg 75%
    02:00 +19°C° 0 mm 1 mps 747 mmHg 77%
    03:00 +18°C° 0 mm 1 mps 747 mmHg 79%
    04:00 +19°C° 0 mm 1 mps 747 mmHg 80%
    05:00 +20°C° 0 mm 1 mps 747 mmHg 80%
    06:00 +20°C° 0 mm 1 mps 747 mmHg 81%
    07:00 +22°C° 0 mm 1 mps 747 mmHg 76%
    08:00 +23°C° 0 mm 1 mps 747 mmHg 72%
    09:00 +25°C° 0 mm 1 mps 747 mmHg 67%
    10:00 +26°C° 0 mm 2 mps 747 mmHg 63%
    11:00 +26°C° 0 mm 2 mps 747 mmHg 59%
    12:00 +27°C° 0 mm 3 mps 747 mmHg 56%
    13:00 +27°C° 0 mm 3 mps 747 mmHg 55%
    14:00 +27°C° 0 mm 3 mps 747 mmHg 55%
    15:00 +28°C° 0 mm 3 mps 747 mmHg 55%
    16:00 +27°C° 0 mm 2 mps 746 mmHg 59%
    17:00 +27°C° 0 mm 2 mps 746 mmHg 62%
    18:00 +27°C° 0 mm 2 mps 746 mmHg 66%
    19:00 +25°C° 0 mm 2 mps 746 mmHg 70%
    20:00 +24°C° 0 mm 2 mps 746 mmHg 73%
    21:00 +21°C° 0 mm 2 mps 746 mmHg 77%
    22:00 +21°C° 0 mm 2 mps 746 mmHg 79%
    23:00 +20°C° 0 mm 2 mps 746 mmHg 80%

    22 June, Saturday

    Time Temperature Precipitation Wind Pressure Humidity
    00:00 +19°C° 0 mm 2 mps 746 mmHg 82%
    01:00 +19°C° 0 mm 2 mps 746 mmHg 82%
    02:00 +19°C° 0 mm 2 mps 746 mmHg 83%
    03:00 +18°C° 0 mm 2 mps 746 mmHg 84%
    04:00 +19°C° 0 mm 2 mps 746 mmHg 84%
    05:00 +19°C° 0 mm 2 mps 746 mmHg 83%
    06:00 +19°C° 0 mm 3 mps 747 mmHg 83%
    07:00 +21°C° 0 mm 3 mps 747 mmHg 79%
    08:00 +22°C° 0 mm 3 mps 747 mmHg 76%
    09:00 +25°C° 0 mm 4 mps 747 mmHg 72%
    10:00 +26°C° 0.1 mm 4 mps 746 mmHg 69%
    11:00 +27°C° 0.1 mm 4 mps 746 mmHg 65%
    12:00 +28°C° 0.1 mm 5 mps 746 mmHg 62%
    13:00 +28°C° 0 mm 5 mps 746 mmHg 61%
    14:00 +28°C° 0 mm 5 mps 746 mmHg 60%
    15:00 +29°C° 0 mm 5 mps 746 mmHg 59%
    16:00 +28°C° 0 mm 5 mps 746 mmHg 63%
    17:00 +28°C° 0 mm 4 mps 745 mmHg 67%
    18:00 +28°C° 0 mm 4 mps 745 mmHg 71%
    19:00 +26°C° 0 mm 4 mps 745 mmHg 75%
    20:00 +25°C° 0 mm 3 mps 745 mmHg 78%
    21:00 +24°C° 0 mm 3 mps 746 mmHg 82%
    22:00 +22°C° 0 mm 3 mps 746 mmHg 83%
    23:00 +21°C° 0 mm 3 mps 746 mmHg 85%

    23 June, Sunday

    Time Temperature Precipitation Wind Pressure Humidity
    00:00 +21°C° 0 mm 3 mps 746 mmHg 87%
    01:00 +20°C° 0 mm 3 mps 746 mmHg 88%
    02:00 +20°C° 0 mm 3 mps 746 mmHg 90%
    03:00 +20°C° 0 mm 3 mps 746 mmHg 91%
    04:00 +20°C° 0 mm 3 mps 746 mmHg 90%
    05:00 +21°C° 0 mm 3 mps 746 mmHg 88%
    06:00 +21°C° 0 mm 3 mps 746 mmHg 87%
    07:00 +24°C° 0 mm 3 mps 746 mmHg 82%
    08:00 +25°C° 0 mm 3 mps 746 mmHg 77%
    09:00 +27°C° 0 mm 3 mps 746 mmHg 71%
    10:00 +28°C° 0.2 mm 3 mps 746 mmHg 68%
    11:00 +29°C° 0.2 mm 3 mps 746 mmHg 64%
    12:00 +29°C° 0.2 mm 4 mps 746 mmHg 61%
    13:00 +30°C° 0.2 mm 4 mps 746 mmHg 59%
    14:00 +30°C° 0.2 mm 4 mps 746 mmHg 58%
    15:00 +30°C° 0.2 mm 4 mps 746 mmHg 57%
    16:00 +30°C° 0 mm 4 mps 746 mmHg 61%
    17:00 +29°C° 0 mm 3 mps 746 mmHg 64%
    18:00 +29°C° 0 mm 3 mps 745 mmHg 68%
    19:00 +27°C° 0 mm 3 mps 745 mmHg 71%
    20:00 +26°C° 0 mm 2 mps 745 mmHg 73%
    21:00 +24°C° 0 mm 2 mps 745 mmHg 76%
    22:00 +24°C° 0 mm 2 mps 745 mmHg 78%
    23:00 +23°C° 0 mm 2 mps 745 mmHg 80%
    Show more